Satellite-Ground Cal/Val Site Overpasses Predictions

Prediction of Satellite NPP Overpassing Cal/Val Site: Antarctic Dome C

Ground Cal/Val Site Location: Latitude: -75.10, Longitude: 123.35; Satellite-Ground Site NADIR distance within 100 km.

Table of predicted overpasses for the next 14.0 days since TLE Epoch: 5/13/2023
Interval Starting Time Ending Time Minimum Distance Time Minimum Distance (km)
1 05/13/2023 07:45:59 05/13/2023 07:46:19 05/13/2023 07:46:09 71.93
2 05/14/2023 07:27:06 05/14/2023 07:27:34 05/14/2023 07:27:20 36.09
3 05/16/2023 15:09:30 05/16/2023 15:09:41 05/16/2023 15:09:35 91.21
4 05/17/2023 14:50:30 05/17/2023 14:50:59 05/17/2023 14:50:44 20.05
5 05/19/2023 07:33:18 05/19/2023 07:33:47 05/19/2023 07:33:33 2.15
6 05/22/2023 14:56:43 05/22/2023 14:57:12 05/22/2023 14:56:58 16.54
7 05/23/2023 14:38:01 05/23/2023 14:38:13 05/23/2023 14:38:07 90.43
8 05/24/2023 07:39:32 05/24/2023 07:39:59 05/24/2023 07:39:46 36.73
